Location: Oakland
(41.0130°N, 74.2650°W)
Time: 14:11:06
(UTC-05:00)

Daily predictions for brighter satellites

Satellite Brightness Start Highest point End
(mag) Time Altitude Azimuth Time Altitude Azimuth Time Altitude Azimuth
BREEZE-M DEB (TANK) 3.3 17:57:34 10° W 17:59:39 44° N 18:06:01 10° ENE
Cosmos 1697 Rocket 3.2 17:54:56 10° NNW 18:00:35 70° WSW 18:06:10 10° SSE
Cosmos 2360 Rocket 4.0 17:58:54 10° NNE 18:01:22 13° NE 18:03:50 10° ENE
NOSS 2-2 (C) 3.8 17:57:47 10° SSW 18:01:36 46° ESE 18:05:54 10° NE
Cosmos 2315 Rocket 4.5 17:56:14 10° NNW 18:02:29 69° W 18:08:39 10° S
CZ-2C R/B 4.4 17:58:44 10° SSW 18:02:49 32° W 18:06:55 10° NNW
Cosmos 1980 Rocket 2.2 17:57:25 10° NNW 18:03:06 75° ENE 18:08:48 10° SSE
ISS 0.2 18:07:53 10° WSW 18:08:35 11° SW 18:09:17 10° SW
SL-08 R/B 4.5 18:03:03 10° S 18:09:02 63° E 18:15:07 10° NNE
Cosmos 1992 Rocket 4.2 18:05:45 10° N 18:10:51 50° ENE 18:15:55 10° SE
Meteor 1-14 Rocket 4.4 18:05:53 10° S 18:11:42 60° E 18:17:36 10° NNE
Thor Agena Rocket 4.3 18:07:14 10° N 18:12:12 56° WNW 18:17:07 10° SSW
SJ-6B 3.5 18:09:25 10° SE 18:13:07 35° ENE 18:16:45 10° N
SKYMED 2 3.7 18:09:05 10° N 18:13:27 83° W 18:17:46 10° SSW
Cosmos 1975 Rocket 3.0 18:10:13 10° N 18:14:31 61° E 18:18:46 10° SSE
METEOR-M 4.2 18:10:31 10° SSE 18:15:43 57° ENE 18:20:57 10° N
Tiangong 2 1.3 18:13:27 10° W 18:16:30 58° N 18:19:11 13° E
Nadezhda 1 Rocket 4.0 18:13:47 10° N 18:19:46 54° E 18:25:41 10° SSE
Cosmos 44 3.5 18:19:21 10° NNW 18:23:34 40° NE 18:27:38 10° ESE
NOAA 12 4.1 18:18:22 10° SSE 18:23:37 69° ENE 18:28:55 10° N
Cosmos 1484 Rocket 4.4 18:20:19 10° S 18:24:05 40° W 18:27:50 10° NNW
GEOS 3 Rocket 3.6 18:21:35 10° NE 18:26:49 68° SE 18:32:05 10° SSW
Cosmos 2082 Rocket 4.0 18:22:42 10° WSW 18:27:42 31° WNW 18:32:45 10° N
ERBS 2.3 18:24:32 10° NW 18:28:01 84° NE 18:31:29 10° SE
Resurs 01 Rocket 2.5 18:25:19 10° SE 18:29:06 29° ENE 18:32:54 10° N
SL-16 R/B 2.5 18:26:21 10° NNW 18:31:50 47° ENE 18:37:16 10° SE
Cosmos 2360 4.4 18:27:01 10° NNW 18:32:45 81° WSW 18:38:28 10° SSE
Cosmos 1536 Rocket 4.3 18:29:12 10° NNE 18:33:10 31° ENE 18:37:07 10° SE
DNEPR-1 R/B 4.2 18:29:31 10° NNW 18:33:27 33° NE 18:36:23 15° ESE
Meteor 1-20 Rocket 4.4 18:27:56 10° S 18:33:35 56° E 18:39:18 10° NNE
Cosmos 1190 Rocket 4.2 18:29:27 10° S 18:34:23 46° ESE 18:39:21 10° NNE
Okean 1 3.7 18:37:53 10° N 18:41:45 42° ENE 18:45:37 10° SSE
Spot 2 Rocket 3.7 18:42:34 10° SE 18:47:21 46° ENE 18:52:11 10° N
FREGAT/IRIS 2.8 18:45:54 10° S 18:48:58 76° WSW 18:52:04 10° NNW
Helios 1B rocket 4.1 18:51:26 17° SE 18:51:26 17° SE 18:52:59 10° SSE
Cosmos 1709 Rocket 4.1 18:46:01 10° SSE 18:52:03 52° E 18:58:03 10° NNE
Cosmos 2322 Rocket 2.1 18:46:29 10° NNW 18:52:06 69° ENE 18:57:41 10° SSE
Cosmos 1633 3.4 18:51:04 10° SSE 18:53:50 29° ESE 18:53:50 29° ESE
CZ-2D R/B 3.8 18:57:05 31° E 18:57:45 34° ENE 19:01:13 10° N
Cosmos 1340 3.2 18:54:27 10° N 18:57:57 35° ENE 18:58:21 34° E
Meteor 1-25 Rocket 4.3 18:53:01 10° SSW 18:58:36 79° W 19:04:17 10° N
Resurs 1-3 3.7 18:54:57 10° SSE 18:59:11 49° ENE 19:03:26 10° N
Cosmos 1238 Rocket 4.3 18:57:42 10° NNE 18:58:29 15° NNE 18:58:29 15° NNE
Okean 2 Rocket 4.2 18:56:13 10° SSW 19:00:32 47° WNW 19:04:51 10° N
Envisat 4.4 19:04:34 21° NE 19:04:34 21° NE 19:07:26 10° NNE
Cosmos 1954 Rocket 4.3 18:58:55 10° S 19:03:43 40° ESE 19:07:21 17° NE
ALOS 2.2 18:59:33 10° SSE 19:04:13 87° E 19:08:55 10° NNW
Meteor 1-11 Rocket 4.1 18:59:10 10° SSE 19:04:29 41° E 19:09:57 10° NNE
HJ-1C 3.4 19:01:35 10° S 19:04:58 85° WSW 19:08:22 10° NNW
Meteor 2-4 Rocket 4.3 19:01:56 10° N 19:06:56 32° ENE 19:07:41 30° E
CENTAUR R/B 3.8 19:00:14 10° NW 19:07:58 57° WSW 19:16:06 10° SSE
COSMOS 2428 4.1 19:04:20 10° N 19:08:09 19° NE 19:08:09 19° NE
Cosmos 1300 Rocket 3.8 19:04:43 10° SSE 19:08:53 45° E 19:13:07 10° NNE
H-2A R/B 2.5 19:10:31 19° SSE 19:13:03 72° ENE 19:16:47 10° N
SL-8 R/B 4.4 19:08:57 10° WNW 19:13:37 50° SW 19:16:32 21° SSE
Spot 1 4.1 19:13:54 46° E 19:14:13 48° ENE 19:18:09 10° N
Cosmos 2151 Rocket 3.9 19:13:58 10° SSW 19:18:24 67° W 19:22:56 10° N
FENGYUN 3A 3.9 19:15:59 10° S 19:21:22 71° WSW 19:26:48 10° NNW
Cosmos 1818 3.5 19:16:20 10° SSW 19:21:43 69° ESE 19:24:33 29° NE
Cosmos 1812 4.5 19:20:35 10° NNW 19:24:05 33° W 19:27:34 10° SSW
Okean 1 Rocket 4.3 19:29:17 10° S 19:39:05 - NNE 19:31:26 28° SSE
DELTA 2 R/B (1) 3.5 19:28:12 10° W 19:33:49 77° S 19:35:05 54° ESE
Cosmos 1602 4.2 19:41:28 10° SSW 19:45:05 59° W 19:45:05 59° W
Cosmos 2360 Rocket 2.0 19:40:43 10° NNW 19:46:23 74° ENE 19:46:58 68° ESE
Cosmos 1461 3.3 19:44:44 10° NW 19:48:30 56° WSW 19:48:30 56° WSW
Cosmos 2219 Rocket 4.0 19:46:54 10° N 19:48:55 18° NNE 19:48:55 18° NNE
Cosmos 676 Rocket 4.5 19:46:59 10° SSW 19:52:04 58° WNW 19:57:14 10° NNE
Helios 1A 3.3 19:52:22 62° WNW 19:52:22 62° WNW 19:56:15 10° NNW
Tiangong 2 3.7 19:50:00 10° WNW 19:51:10 21° W 19:51:10 21° W
Cosmos 1023 Rocket 4.5 19:53:50 10° SSW 19:58:28 73° SW 19:58:28 73° SW
Cosmos 1833 4.3 19:54:03 10° SSW 19:59:46 76° WNW 20:01:51 41° NNE
Cosmos 2333 Rocket 4.1 19:59:58 10° N 20:01:48 17° NNE 20:01:48 17° NNE
Resurs 01 Rocket 3.7 20:01:53 10° SSW 20:05:32 25° W 20:09:14 10° NW
SL-16 R/B 4.2 20:11:06 10° NW 20:15:37 25° WSW 20:20:05 10° SSW
Cosmos 2184 Rocket 4.3 20:26:03 10° SSW 20:32:19 62° W 20:38:34 10° N
Cosmos 2074 Rocket 4.5 20:28:57 10° SSW 20:35:03 56° W 20:41:14 10° N
COSMOS 2428 4.3 20:47:32 10° NNW 20:50:12 29° NW 20:50:12 29° NW
